SCP
0 0 0 0 0 0 0 0 0 0 0 0 0 0 0 0 0 0 0 0 0 0 0 0 0 0 0 0 0 0 0 0 0 0 0 0 0 0 0 0 0 0 0 0
0 0 0 0 0 0 0 0 0 0 0 0 0 0 0 0 0 0 0 0 0 0 0 0 0 0 0 0 0 0 0 0 0 0 0 0 0 0 0 0 0 0 0 0
0 0 0 0 0 0 0 0 0 0 0 0 0 0 0 0 0 0 0 0 0 0 0 0 0 0 0 0 0 0 0 0 0 0 0 0 0 0 0 0 0 0 0 0
0 0 0 0 0 0 0 0 0 0 0 0 0 0 0 0 0 0 0 0 0 0 0 0 0 0 0 0 0 0 0 0 0 0 0 0 0 0 0 0 0 0 0 0
0 0 0 0 0 0 0 0 0 0 0 0 0 0 0 0 0 0 0 0 0 0 0 0 0 0 0 0 0 0 0 0 0 0 0 0 0 0 0 0 0 0 0 0
0 0 0 0 0 0 0 0 0 0 0 0 0 0 0 0 0 0 0 0 0 0 0 0 0 0 0 0 0 0 0 0 0 0 0 0 0 0 0 0 0 0 0 0
0 0 0 0 0 0 0 0 0 0 0 0 0 0 0 0 0 0 0 0 0 0 0 0 0 0 0 0 0 0 0 0 0 0 0 0 0 0 0 0 0 0 0 0
0 0 0 0 0 0 0 0 0 0 0 0 0 0 0 0 0 0 0 0 0 0 0 0 0 0 0 0 0 0 0 0 0 0 0 0 0 0 0 0 0 0 0 0
0 0 0 0 0 0 0 0 0 0 0 0 0 0 0 0 0 0 0 0 0 0 0 0 0 0 0 0 0 0 0 0 0 0 0 0 0 0 0 0 0 0 0 0
0 0 0 0 0 0 0 0 0 0 0 0 0 0 0 0 0 0 0 0 0 0 0 0 0 0 0 0 0 0 0 0 0 0 0 0 0 0 0 0 0 0 0 0
0 0 0 0 0 0 0 0 0 0 0 0 0 0 0 0 0 0 0 0 0 0 0 0 0 0 0 0 0 0 0 0 0 0 0 0 0 0 0 0 0 0 0 0
0 0 0 0 0 0 0 0 0 0 0 0 0 0 0 0 0 0 0 0 0 0 0 0 0 0 0 0 0 0 0 0 0 0 0 0 0 0 0 0 0 0 0 0
0 0 0 0 0 0 0 0 0 0 0 0 0 0 0 0 0 0 0 0 0 0 -0 -0 -0 0 0 0 0 0 0 0 0 0 0 0 0 0 0 0 0 0 0 0
0 0 0 0 0 0 0 0 0 0 0 0 0 0 0 0 0 0 0 0 0 0 0 -0 0 -0 0 0 0 0 0 0 0 0 0 0 0 0 0 0 0 0 0 0
0 0 0 0 0 0 0 0 0 0 0 0 0 0 0 0 0 0 0 0 0 0 0 0 0 -0 -0 -0 -0 -0 0 0 0 0 -0 -0 0 0 0 0 0 0 0 0
0 0 0 0 0 0 0 0 0 0 0 0 0 0 0 -0 0 0 0 0 0 0 0 0 0 0 0 -0 -0 0 0 0 0 0 0 0 0 0 0 0 0 0 0 0
0 0 0 0 0 0 0 0 0 0 0 0 0 0 0 0 0 0 0 0 0 0 0 0 0 0 0 0 0 0 0 0 0 0 0 0 0 0 0 0 0 0 0 0
0 0 0 0 0 0 0 0 0 0 0 0 0 0 0 0 0 0 0 0 0 0 0 0 0 0 0 0 0 0 0 0 0 0 0 0 0 0 0 0 0 0 0 0
0 0 0 0 0 0 0 0 0 0 0 0 0 0 0 0 0 0 0 0 0 0 0 0 0 0 0 0 0 0 0 0 0 0 0 -0 0 0 0 0 0 0 0 0
0 0 0 0 0 0 0 0 0 0 0 0 0 0 0 0 0 0 0 0 0 0 0 0 0 0 0 0 0 0 0 0 0 0 -0 -0 0 0 0 0 0 0 0 0
0 0 0 0 0 0 0 0 0 0 0 0 0 0 0 0 0 0 0 0 0 0 0 0 0 0 0 0 0 0 0 0 0 0 0 0 0 0 0 0 0 0 0 0
0 0 0 0 0 0 0 0 0 0 0 0 0 0 0 0 0 0 0 0 0 0 0 0 0 0 0 0 0 -0 -0 -0 -0 -0 0 0 0 0 0 0 0 0 0 0
0 0 0 0 0 0 0 0 0 0 0 0 0 0 0 0 0 0 0 0 0 0 0 0 0 0 0 0 -0 -0 -0 -0 -0 -0 -0 -0 0 0 0 0 0 0 0 0
0 0 0 0 0 0 0 0 0 0 0 0 0 0 0 0 0 0 0 0 0 0 0 0 0 0 0 -0 -0 -0 -0 -0 -0 -0 -0 0 0 0 0 0 0 0 0 0
0 0 0 0 0 0 0 0 0 0 0 0 0 0 0 0 0 0 0 0 0 0 0 0 0 -0 -0 -0 -0 -0 -0 -0 -0 -0 0 0 0 0 0 0 0 0 0 0
0 0 0 0 0 0 0 0 0 0 0 0 0 0 0 0 0 0 0 0 0 0 0 0 -0 -0 -0 -0 -0 -0 -0 -0 -0 0 0 0 0 0 0 0 0 0 0 0
0 0 0 0 0 0 0 0 0 0 0 0 0 0 0 0 0 0 0 0 0 0 -0 -0 -0 -0 -0 -0 -0 -0 -0 -0 -0 0 0 0 0 0 0 0 0 0 0 0
Wind_Speed_500mb
65 69 60 47 52 49 46 55 10 39 65 25 15 25 20 14 14 24 18 8 25 45 31 27 27 33 30 41 27 24 16 6 21 42 6 4 17 30 36 19 22 18 26 51
48 64 64 65 60 44 48 24 18 60 95 20 22 26 25 20 24 24 18 28 23 20 27 22 32 36 20 33 27 24 19 10 13 26 11 4 16 19 20 34 29 58 27 46
38 35 44 50 58 53 43 18 7 14 45 33 39 39 40 31 34 27 18 8 5 2 19 25 27 28 9 21 20 8 29 13 26 41 44 3 11 28 38 46 35 44 50 59
49 43 29 39 43 57 40 26 12 26 12 25 31 31 15 43 28 32 26 11 43 43 39 45 38 53 39 9 9 4 12 27 28 41 48 46 48 37 39 51 56 53 58 49
42 47 47 33 29 41 48 25 11 21 11 58 49 43 35 55 50 41 28 37 44 42 51 47 46 46 42 34 8 12 8 36 37 53 58 64 68 41 67 63 68 51 47 54
42 35 42 47 44 30 23 28 54 28 29 23 26 43 55 54 52 54 71 58 38 42 49 85 97 85 58 18 31 34 19 15 22 45 49 46 28 66 69 81 76 64 60 68
41 38 37 33 35 40 41 39 44 14 10 24 34 48 59 68 71 67 63 74 50 91 94 51 41 39 53 42 40 47 30 40 27 21 17 34 43 49 72 72 68 66 56 73
49 38 35 37 43 41 35 42 36 13 10 12 28 27 41 56 81 65 66 94 93 65 51 18 23 10 14 32 50 53 49 41 20 17 31 34 6 33 45 42 65 56 64 68
50 45 42 48 52 36 39 53 51 43 10 15 23 11 13 14 29 35 58 90 89 63 12 10 23 25 14 15 11 51 50 50 36 25 27 39 40 58 52 11 16 59 57 57
55 51 48 48 41 38 40 44 42 46 21 45 35 27 24 20 14 12 6 17 36 71 25 30 29 31 10 24 34 33 18 27 48 46 42 28 23 17 11 23 38 63 72 58
58 56 52 51 47 46 41 50 41 46 34 53 40 41 31 32 16 7 17 20 3 6 20 21 27 20 27 29 51 55 47 23 22 25 35 50 34 54 48 57 76 72 67 53
59 58 55 54 51 48 45 56 50 43 46 38 46 55 53 51 55 37 12 14 20 12 7 7 8 10 10 29 25 37 40 52 51 41 29 23 43 59 100 110 81 75 64 73
60 59 55 53 55 51 47 50 59 55 51 48 53 46 34 34 56 61 33 43 28 25 20 8 8 8 13 12 13 16 18 42 37 50 57 46 40 61 79 85 90 97 93 91
59 60 59 54 52 53 50 50 56 51 14 7 19 31 42 34 28 27 34 57 60 49 38 10 10 13 9 22 18 19 21 23 18 25 42 47 61 66 59 60 74 80 90 84
59 59 60 59 54 54 50 55 58 57 38 6 13 26 59 69 71 64 42 55 62 42 20 15 24 20 24 25 34 36 40 37 27 34 39 34 36 48 63 76 85 84 73 84
64 57 57 58 53 49 45 36 51 57 62 17 7 15 31 20 37 53 56 50 48 21 13 10 17 36 23 19 26 34 57 66 68 47 86 89 78 79 85 79 79 78 74 82
59 55 53 51 47 44 47 14 7 3 28 16 5 5 24 48 45 36 35 28 31 25 22 15 30 34 47 30 37 48 74 82 89 95 96 80 93 85 89 90 103 108 108 106
51 46 44 44 45 42 49 61 58 46 33 21 7 5 7 15 14 13 33 32 31 17 24 39 28 42 20 21 36 60 80 83 77 60 58 58 67 74 78 85 89 94 102 101
39 36 29 30 27 26 41 42 38 41 31 5 5 5 10 10 15 13 13 15 13 22 14 21 21 15 14 30 26 36 34 31 47 62 73 70 51 62 76 71 75 75 82 86
27 24 16 11 19 30 18 14 14 17 17 17 8 13 10 15 10 3 2 3 7 5 10 11 8 17 55 29 27 31 41 45 49 54 51 72 86 76 81 87 92 93 93 93
25 16 15 16 17 23 16 12 10 5 4 12 16 30 14 17 8 8 12 5 5 7 8 5 7 12 6 30 42 43 44 43 48 51 63 63 71 85 82 97 102 103 101 94
18 13 14 16 14 12 10 6 3 7 11 7 7 9 21 11 14 6 7 7 5 12 2 6 21 21 17 43 57 56 59 59 63 57 74 79 76 71 82 94 104 103 94 84
31 20 17 15 8 10 10 12 5 5 7 9 6 6 12 10 15 7 5 9 10 3 4 15 19 23 41 53 63 71 66 74 79 78 76 81 90 77 71 94 92 83 82 80
2 2 5 7 5 8 9 11 6 5 4 1 4 4 8 11 7 7 8 10 1 7 16 42 5 39 56 61 68 70 78 77 80 86 83 80 81 81 74 68 55 49 45 38
10 9 9 11 6 3 3 8 12 3 4 3 3 8 5 5 6 7 1 6 10 12 17 4 28 60 64 71 72 72 78 78 81 83 80 84 76 68 59 44 31 13 11 11
7 9 4 2 2 3 5 4 5 6 7 5 7 5 5 12 7 7 15 8 15 9 7 37 59 60 64 69 71 75 72 77 81 77 77 73 64 54 40 29 17 9 6 16
7 6 6 8 15 7 4 5 6 13 8 3 2 8 11 6 7 8 8 5 8 22 44 48 55 70 80 80 76 73 74 74 72 69 63 55 39 29 18 17 19 21 27 37
Wind_Direction_500mb
273 272 270 272 271 268 270 230 222 206 180 180 201 226 232 235 248 239 257 237 251 244 227 238 235 243 225 186 161 170 207 208 234 239 146 310 252 232 215 225 228 235 259 270
294 279 272 262 263 262 274 231 221 185 181 189 210 224 238 261 233 232 214 230 221 215 235 235 235 244 211 194 173 171 170 207 241 255 213 178 212 210 232 242 258 248 236 252
278 288 290 274 263 256 254 249 198 167 216 242 219 219 225 229 235 243 238 285 33 212 242 234 253 249 201 207 208 221 180 172 217 239 251 100 191 228 222 223 234 252 242 260
273 276 290 295 282 257 255 235 218 182 183 235 236 226 228 238 240 228 209 221 225 234 248 248 252 260 250 189 185 224 183 234 236 249 261 274 278 270 251 234 242 243 257 258
283 285 276 290 303 272 251 251 182 183 213 219 217 223 222 229 239 230 231 225 231 232 241 243 259 245 249 238 198 215 203 244 247 252 261 263 258 260 262 266 258 252 254 262
296 297 278 278 291 292 281 269 258 237 189 195 208 223 226 231 236 242 237 234 234 233 228 227 240 251 257 205 232 228 211 224 220 240 232 251 256 241 249 256 262 257 255 255
290 288 286 282 278 278 272 286 301 282 290 236 225 224 215 223 230 229 235 233 233 239 250 251 260 255 247 242 228 227 241 226 228 247 231 230 234 244 237 245 251 258 254 253
282 281 280 280 278 284 284 284 286 278 273 277 296 290 254 248 239 241 243 241 239 250 245 241 251 232 228 228 227 226 219 231 236 232 222 242 180 236 226 229 246 257 249 252
283 278 283 281 275 263 270 269 276 274 284 248 273 282 290 289 255 260 247 250 254 249 227 204 234 235 202 200 217 220 225 228 229 224 232 236 234 237 240 78 250 249 240 249
280 276 273 279 275 268 267 270 267 252 264 268 263 272 281 300 325 308 319 303 237 226 227 238 244 247 209 233 227 225 202 216 227 235 245 247 222 209 125 194 242 247 250 248
282 275 269 271 271 273 263 263 265 260 274 274 266 266 276 295 291 285 357 346 297 220 227 231 229 240 230 233 233 226 223 206 214 231 243 248 218 228 221 237 242 243 256 258
276 276 269 264 268 267 266 262 258 258 249 263 268 271 272 273 271 272 259 298 319 292 306 350 320 293 212 201 228 218 231 226 237 223 232 240 215 223 228 238 250 251 252 254
269 271 272 266 263 263 261 269 271 241 241 251 263 268 292 274 261 257 244 260 257 261 296 334 315 314 329 305 329 316 279 265 263 261 252 263 253 236 238 241 241 247 253 259
273 266 267 265 266 259 259 256 271 273 227 232 272 273 270 271 275 260 256 258 269 278 292 283 266 274 243 276 279 259 275 296 284 290 289 282 286 280 284 289 288 273 265 265
269 269 263 262 262 261 263 261 261 267 231 221 251 275 271 276 274 273 266 257 265 255 269 260 266 276 280 267 267 261 269 281 278 275 296 282 283 298 300 299 295 291 288 284
264 267 262 260 256 258 262 260 264 263 249 253 235 253 258 240 261 273 272 269 267 244 236 262 256 269 271 262 262 270 275 280 284 288 289 291 300 297 294 289 291 294 295 287
264 260 262 257 255 251 239 250 215 10 223 244 263 241 243 250 258 254 249 238 248 250 264 252 270 270 267 265 267 280 276 277 276 275 280 286 285 288 286 283 284 285 284 280
258 257 254 257 256 256 247 247 246 250 235 218 232 218 296 224 226 249 262 255 254 233 258 271 264 272 263 262 261 260 266 271 277 293 295 297 296 296 294 292 291 287 283 281
246 247 248 253 240 241 250 259 256 240 234 254 192 229 266 163 220 245 267 264 272 266 250 251 254 248 238 255 322 353 352 341 318 313 308 313 313 305 297 302 298 292 291 292
226 228 229 222 216 231 226 193 206 207 213 226 206 210 240 251 269 261 269 214 237 240 237 265 223 243 250 31 15 346 336 334 331 333 323 327 314 307 302 300 295 286 283 285
207 196 217 219 188 178 189 203 189 172 239 221 232 208 232 247 206 217 213 252 251 249 254 251 261 275 62 358 346 337 330 325 320 307 298 297 290 291 295 293 292 287 285 285
219 204 194 185 196 194 195 172 128 203 220 217 202 206 203 202 187 202 216 228 241 242 176 234 273 273 7 343 336 331 328 324 319 316 307 306 299 296 292 290 293 293 297 293
220 191 191 186 174 187 199 178 234 257 208 222 229 224 185 170 197 213 218 210 235 358 242 261 276 23 349 339 331 325 326 325 322 316 315 314 312 316 305 304 301 299 296 279
186 124 180 203 182 226 188 194 191 182 180 329 265 246 211 210 180 220 204 233 321 243 254 268 17 336 328 326 326 321 321 322 320 320 320 315 318 322 320 313 311 302 285 276
193 170 217 207 225 211 143 162 163 193 235 304 239 250 231 216 227 218 185 286 235 226 262 312 329 324 323 321 321 320 319 321 320 320 317 322 326 323 320 324 322 302 250 214
215 223 222 184 111 247 137 72 116 349 324 271 225 239 212 227 214 170 222 209 237 289 348 315 316 316 316 314 316 317 318 318 318 322 322 326 328 325 322 330 343 21 95 129
197 211 84 93 66 85 92 41 2 346 329 224 229 222 221 314 232 243 18 284 327 315 309 308 311 311 314 316 317 318 321 320 326 326 330 331 332 336 335 21 60 93 114 124
Wind_Speed_850mb
65 69 60 47 52 49 46 55 10 39 65 25 15 25 20 14 14 24 18 8 25 45 31 27 27 33 30 41 27 24 16 6 21 42 6 4 17 30 36 19 22 18 26 51
48 64 64 65 60 44 48 24 18 60 95 20 22 26 25 20 24 24 18 28 23 20 27 22 32 36 20 33 27 24 19 10 13 26 11 4 16 19 20 34 29 58 27 46
38 35 44 50 58 53 43 18 7 14 45 33 39 39 40 31 34 27 18 8 5 2 19 25 27 28 9 21 20 8 29 13 26 41 44 3 11 28 38 46 35 44 50 59
49 43 29 39 43 57 40 26 12 26 12 25 31 31 15 43 28 32 26 11 43 43 39 45 38 53 39 9 9 4 12 27 28 41 48 46 48 37 39 51 56 53 58 49
42 47 47 33 29 41 48 25 11 21 11 58 49 43 35 55 50 41 28 37 44 42 51 47 46 46 42 34 8 12 8 36 37 53 58 64 68 41 67 63 68 51 47 54
42 35 42 47 44 30 23 28 54 28 29 23 26 43 55 54 52 54 71 58 38 42 49 85 97 85 58 18 31 34 19 15 22 45 49 46 28 66 69 81 76 64 60 68
41 38 37 33 35 40 41 39 44 14 10 24 34 48 59 68 71 67 63 74 50 91 94 51 41 39 53 42 40 47 30 40 27 21 17 34 43 49 72 72 68 66 56 73
49 38 35 37 43 41 35 42 36 13 10 12 28 27 41 56 81 65 66 94 93 65 51 18 23 10 14 32 50 53 49 41 20 17 31 34 6 33 45 42 65 56 64 68
50 45 42 48 52 36 39 53 51 43 10 15 23 11 13 14 29 35 58 90 89 63 12 10 23 25 14 15 11 51 50 50 36 25 27 39 40 58 52 11 16 59 57 57
55 51 48 48 41 38 40 44 42 46 21 45 35 27 24 20 14 12 6 17 36 71 25 30 29 31 10 24 34 33 18 27 48 46 42 28 23 17 11 23 38 63 72 58
58 56 52 51 47 46 41 50 41 46 34 53 40 41 31 32 16 7 17 20 3 6 20 21 27 20 27 29 51 55 47 23 22 25 35 50 34 54 48 57 76 72 67 53
59 58 55 54 51 48 45 56 50 43 46 38 46 55 53 51 55 37 12 14 20 12 7 7 8 10 10 29 25 37 40 52 51 41 29 23 43 59 100 110 81 75 64 73
60 59 55 53 55 51 47 50 59 55 51 48 53 46 34 34 56 61 33 43 28 25 20 8 8 8 13 12 13 16 18 42 37 50 57 46 40 61 79 85 90 97 93 91
59 60 59 54 52 53 50 50 56 51 14 7 19 31 42 34 28 27 34 57 60 49 38 10 10 13 9 22 18 19 21 23 18 25 42 47 61 66 59 60 74 80 90 84
59 59 60 59 54 54 50 55 58 57 38 6 13 26 59 69 71 64 42 55 62 42 20 15 24 20 24 25 34 36 40 37 27 34 39 34 36 48 63 76 85 84 73 84
64 57 57 58 53 49 45 36 51 57 62 17 7 15 31 20 37 53 56 50 48 21 13 10 17 36 23 19 26 34 57 66 68 47 86 89 78 79 85 79 79 78 74 82
59 55 53 51 47 44 47 14 7 3 28 16 5 5 24 48 45 36 35 28 31 25 22 15 30 34 47 30 37 48 74 82 89 95 96 80 93 85 89 90 103 108 108 106
51 46 44 44 45 42 49 61 58 46 33 21 7 5 7 15 14 13 33 32 31 17 24 39 28 42 20 21 36 60 80 83 77 60 58 58 67 74 78 85 89 94 102 101
39 36 29 30 27 26 41 42 38 41 31 5 5 5 10 10 15 13 13 15 13 22 14 21 21 15 14 30 26 36 34 31 47 62 73 70 51 62 76 71 75 75 82 86
27 24 16 11 19 30 18 14 14 17 17 17 8 13 10 15 10 3 2 3 7 5 10 11 8 17 55 29 27 31 41 45 49 54 51 72 86 76 81 87 92 93 93 93
25 16 15 16 17 23 16 12 10 5 4 12 16 30 14 17 8 8 12 5 5 7 8 5 7 12 6 30 42 43 44 43 48 51 63 63 71 85 82 97 102 103 101 94
18 13 14 16 14 12 10 6 3 7 11 7 7 9 21 11 14 6 7 7 5 12 2 6 21 21 17 43 57 56 59 59 63 57 74 79 76 71 82 94 104 103 94 84
31 20 17 15 8 10 10 12 5 5 7 9 6 6 12 10 15 7 5 9 10 3 4 15 19 23 41 53 63 71 66 74 79 78 76 81 90 77 71 94 92 83 82 80
2 2 5 7 5 8 9 11 6 5 4 1 4 4 8 11 7 7 8 10 1 7 16 42 5 39 56 61 68 70 78 77 80 86 83 80 81 81 74 68 55 49 45 38
10 9 9 11 6 3 3 8 12 3 4 3 3 8 5 5 6 7 1 6 10 12 17 4 28 60 64 71 72 72 78 78 81 83 80 84 76 68 59 44 31 13 11 11
7 9 4 2 2 3 5 4 5 6 7 5 7 5 5 12 7 7 15 8 15 9 7 37 59 60 64 69 71 75 72 77 81 77 77 73 64 54 40 29 17 9 6 16
7 6 6 8 15 7 4 5 6 13 8 3 2 8 11 6 7 8 8 5 8 22 44 48 55 70 80 80 76 73 74 74 72 69 63 55 39 29 18 17 19 21 27 37
Wind_Direction_850mb
273 272 270 272 271 268 270 230 222 206 180 180 201 226 232 235 248 239 257 237 251 244 227 238 235 243 225 186 161 170 207 208 234 239 146 310 252 232 215 225 228 235 259 270
294 279 272 262 263 262 274 231 221 185 181 189 210 224 238 261 233 232 214 230 221 215 235 235 235 244 211 194 173 171 170 207 241 255 213 178 212 210 232 242 258 248 236 252
278 288 290 274 263 256 254 249 198 167 216 242 219 219 225 229 235 243 238 285 33 212 242 234 253 249 201 207 208 221 180 172 217 239 251 100 191 228 222 223 234 252 242 260
273 276 290 295 282 257 255 235 218 182 183 235 236 226 228 238 240 228 209 221 225 234 248 248 252 260 250 189 185 224 183 234 236 249 261 274 278 270 251 234 242 243 257 258
283 285 276 290 303 272 251 251 182 183 213 219 217 223 222 229 239 230 231 225 231 232 241 243 259 245 249 238 198 215 203 244 247 252 261 263 258 260 262 266 258 252 254 262
296 297 278 278 291 292 281 269 258 237 189 195 208 223 226 231 236 242 237 234 234 233 228 227 240 251 257 205 232 228 211 224 220 240 232 251 256 241 249 256 262 257 255 255
290 288 286 282 278 278 272 286 301 282 290 236 225 224 215 223 230 229 235 233 233 239 250 251 260 255 247 242 228 227 241 226 228 247 231 230 234 244 237 245 251 258 254 253
282 281 280 280 278 284 284 284 286 278 273 277 296 290 254 248 239 241 243 241 239 250 245 241 251 232 228 228 227 226 219 231 236 232 222 242 180 236 226 229 246 257 249 252
283 278 283 281 275 263 270 269 276 274 284 248 273 282 290 289 255 260 247 250 254 249 227 204 234 235 202 200 217 220 225 228 229 224 232 236 234 237 240 78 250 249 240 249
280 276 273 279 275 268 267 270 267 252 264 268 263 272 281 300 325 308 319 303 237 226 227 238 244 247 209 233 227 225 202 216 227 235 245 247 222 209 125 194 242 247 250 248
282 275 269 271 271 273 263 263 265 260 274 274 266 266 276 295 291 285 357 346 297 220 227 231 229 240 230 233 233 226 223 206 214 231 243 248 218 228 221 237 242 243 256 258
276 276 269 264 268 267 266 262 258 258 249 263 268 271 272 273 271 272 259 298 319 292 306 350 320 293 212 201 228 218 231 226 237 223 232 240 215 223 228 238 250 251 252 254
269 271 272 266 263 263 261 269 271 241 241 251 263 268 292 274 261 257 244 260 257 261 296 334 315 314 329 305 329 316 279 265 263 261 252 263 253 236 238 241 241 247 253 259
273 266 267 265 266 259 259 256 271 273 227 232 272 273 270 271 275 260 256 258 269 278 292 283 266 274 243 276 279 259 275 296 284 290 289 282 286 280 284 289 288 273 265 265
269 269 263 262 262 261 263 261 261 267 231 221 251 275 271 276 274 273 266 257 265 255 269 260 266 276 280 267 267 261 269 281 278 275 296 282 283 298 300 299 295 291 288 284
264 267 262 260 256 258 262 260 264 263 249 253 235 253 258 240 261 273 272 269 267 244 236 262 256 269 271 262 262 270 275 280 284 288 289 291 300 297 294 289 291 294 295 287
264 260 262 257 255 251 239 250 215 10 223 244 263 241 243 250 258 254 249 238 248 250 264 252 270 270 267 265 267 280 276 277 276 275 280 286 285 288 286 283 284 285 284 280
258 257 254 257 256 256 247 247 246 250 235 218 232 218 296 224 226 249 262 255 254 233 258 271 264 272 263 262 261 260 266 271 277 293 295 297 296 296 294 292 291 287 283 281
246 247 248 253 240 241 250 259 256 240 234 254 192 229 266 163 220 245 267 264 272 266 250 251 254 248 238 255 322 353 352 341 318 313 308 313 313 305 297 302 298 292 291 292
226 228 229 222 216 231 226 193 206 207 213 226 206 210 240 251 269 261 269 214 237 240 237 265 223 243 250 31 15 346 336 334 331 333 323 327 314 307 302 300 295 286 283 285
207 196 217 219 188 178 189 203 189 172 239 221 232 208 232 247 206 217 213 252 251 249 254 251 261 275 62 358 346 337 330 325 320 307 298 297 290 291 295 293 292 287 285 285
219 204 194 185 196 194 195 172 128 203 220 217 202 206 203 202 187 202 216 228 241 242 176 234 273 273 7 343 336 331 328 324 319 316 307 306 299 296 292 290 293 293 297 293
220 191 191 186 174 187 199 178 234 257 208 222 229 224 185 170 197 213 218 210 235 358 242 261 276 23 349 339 331 325 326 325 322 316 315 314 312 316 305 304 301 299 296 279
186 124 180 203 182 226 188 194 191 182 180 329 265 246 211 210 180 220 204 233 321 243 254 268 17 336 328 326 326 321 321 322 320 320 320 315 318 322 320 313 311 302 285 276
193 170 217 207 225 211 143 162 163 193 235 304 239 250 231 216 227 218 185 286 235 226 262 312 329 324 323 321 321 320 319 321 320 320 317 322 326 323 320 324 322 302 250 214
215 223 222 184 111 247 137 72 116 349 324 271 225 239 212 227 214 170 222 209 237 289 348 315 316 316 316 314 316 317 318 318 318 322 322 326 328 325 322 330 343 21 95 129
197 211 84 93 66 85 92 41 2 346 329 224 229 222 221 314 232 243 18 284 327 315 309 308 311 311 314 316 317 318 321 320 326 326 330 331 332 336 335 21 60 93 114 124